[[{"header":{"parameterUnit":"m.s-1","parameterCategory":2,"la1":30.2991,"la2":30.254,"lo1":-89.0895,"lo2":-89.0444,"dy":0.0017,"dx":0.0017,"nx":28,"ny":28,"refTime":"2025-07-11T03:00:00:Z","depth":"0","parameterNumber":2,"parameterNumberName":"U-component_of_CURRENTS"},"data":[0,0,0,0,0,0,0,0,0,0,0,0,0,0,0,0,0,0,0,0,0,0,0,0,0,0,0,0,0,0,0,0,0,0,0,0,0,0,0,0,0,0,0,0,0,0,0,0,0,0,0,0,0,0,0,0,0,0,-0.3202,-0.3202,0,-0.3214,-0.3214,-0.3214,-0.3146,-0.3144,-0.3142,-0.3141,-0.3091,-0.3091,-0.3092,0,0,0,0,0,0,0,0,0,0,0,0,0,-0.3167,-0.3168,-0.3202,-0.3202,-0.3202,-0.3214,-0.3214,-0.3214,-0.3146,-0.3144,-0.3142,-0.314,-0.3091,-0.3091,-0.3092,0,0,0,0,0,0,0,0,0,0,0,0,0,-0.318,-0.3168,-0.3202,-0.3171,-0.3169,-0.3214,-0.3214,-0.3214,-0.3147,-0.3144,-0.3141,-0.3139,-0.3091,-0.3091,-0.3092,-0.3149,0,0,-0.3093,-0.3094,0,0,0,0,0,0,0,0,-0.3179,-0.3181,-0.3175,-0.3173,-0.3171,-0.3177,-0.3183,-0.3189,-0.3147,-0.3154,-0.3141,-0.3138,-0.3117,-0.3115,-0.3122,-0.3147,-0.3145,-0.3094,-0.3094,-0.3094,-0.3094,0,0,0,0,0,0,0,-0.3178,-0.318,-0.3205,-0.3176,-0.3173,-0.3173,-0.3171,-0.3185,-0.3148,-0.3153,-0.3148,-0.3153,-0.3115,-0.3122,-0.312,-0.3144,-0.3093,-0.3094,-0.3094,-0.3094,-0.3169,-0.3171,0,0,0,0,0,0,-0.318,-0.3179,-0.3204,-0.3205,-0.317,-0.3176,-0.3174,-0.3176,-0.3149,-0.3143,-0.3155,-0.315,-0.3122,-0.312,-0.3118,-0.3127,-0.3094,-0.3095,-0.3095,-0.3168,-0.317,-0.3172,0,0,0,0,0,0,-0.318,-0.3183,-0.3204,-0.3194,-0.3196,-0.3179,-0.3183,-0.3178,-0.3177,-0.3152,-0.3144,-0.3157,-0.312,-0.3118,-0.3135,-0.3126,-0.3095,-0.3095,-0.3166,-0.3168,-0.3171,-0.3181,0,0,0,0,0,0,-0.3179,-0.3182,-0.3184,-0.3194,-0.3197,-0.3238,-0.3185,-0.318,-0.3185,-0.3177,-0.3152,-0.3145,-0.3118,-0.3134,-0.3135,-0.3126,-0.3096,-0.3164,-0.3167,-0.317,-0.3179,-0.3184,-0.3188,0,0,0,0,0,-0.3177,-0.3194,-0.3184,-0.3186,-0.32,-0.324,-0.3243,-0.3219,-0.3188,-0.3204,-0.3183,-0.3145,-0.3154,-0.3137,-0.3137,-0.3128,-0.3162,-0.3166,-0.317,-0.3177,-0.3183,-0.3188,0,0,0,0,0,0,-0.3167,-0.319,-0.3178,-0.3195,-0.3218,-0.3229,-0.324,-0.323,-0.3229,-0.3213,-0.3178,-0.3172,-0.3182,-0.3174,-0.3156,-0.3164,-0.3148,-0.3152,-0.3153,-0.3159,-0.3163,-0.3134,-0.3096,0,0,0,0,0,-0.3171,-0.3192,-0.3213,-0.3225,-0.3241,-0.3243,-0.3253,-0.3245,-0.3248,-0.3243,-0.3227,-0.3211,-0.3205,-0.3195,-0.3199,-0.3214,-0.3118,-0.3209,-0.3213,-0.3217,-0.3198,-0.3083,-0.3072,-0.3184,-0.3184,-0.3184,0,0,-0.3163,-0.3184,-0.3188,-0.3226,-0.3236,-0.3268,-0.3242,-0.3267,-0.3276,-0.3242,-0.3247,-0.3237,-0.3219,-0.3224,-0.3226,-0.3208,-0.3126,-0.3222,-0.3224,-0.3202,-0.3085,-0.3073,-0.3062,-0.3187,-0.3186,-0.3186,0,0,-0.3182,-0.3186,-0.3217,-0.3247,-0.3281,-0.3288,-0.3299,-0.332,-0.3309,-0.3334,-0.3297,-0.3275,-0.3294,-0.3251,-0.3237,-0.3277,-0.3165,-0.3294,-0.3276,-0.3166,-0.3153,-0.3142,-0.295,-0.2921,-0.3283,-0.3283,-0.3283,0,-0.3167,-0.3205,-0.3233,-0.3278,-0.3286,-0.3299,-0.3324,-0.3339,-0.3357,-0.3334,-0.3338,-0.3303,-0.3292,-0.3247,-0.3261,-0.3277,-0.3178,-0.3249,-0.3164,-0.3151,-0.3139,-0.2945,-0.2913,-0.3284,-0.3284,-0.3284,-0.3284,0,-0.3215,-0.3242,-0.3266,-0.3315,-0.3339,-0.3365,-0.3388,-0.3397,-0.3385,-0.3374,-0.3344,-0.3327,-0.3286,-0.3291,-0.329,-0.321,-0.315,-0.3186,-0.3133,-0.3127,-0.2924,-0.289,-0.3286,-0.3285,-0.3285,-0.3285,0,0,-0.3153,-0.3274,-0.3272,-0.329,-0.335,-0.3364,-0.339,-0.3388,-0.3349,-0.3372,-0.3297,-0.331,-0.3276,-0.3259,-0.3242,-0.3157,-0.2977,-0.3142,-0.3135,-0.2918,-0.2659,-0.2456,-0.2398,-0.3,-0.2996,-0.2993,-0.2529,0,-0.316,-0.3248,-0.3297,-0.3332,-0.3361,-0.3378,-0.3386,-0.3384,-0.3362,-0.3304,-0.3266,-0.3215,-0.3273,-0.3227,-0.3163,-0.3029,-0.2899,-0.3094,-0.2726,-0.2712,-0.2508,-0.2358,-0.2096,-0.1648,-0.2495,-0.2489,-0.2485,0,-0.3161,-0.3217,-0.3275,-0.3313,-0.332,-0.3341,-0.3298,-0.3314,-0.3259,-0.3231,-0.3183,-0.3144,-0.3033,-0.3084,-0.2826,-0.2949,-0.2803,-0.2696,-0.2676,-0.2459,-0.2447,-0.1808,-0.1554,-0.1626,-0.2432,-0.2437,-0.244,0,-0.3079,-0.3173,-0.3209,-0.3231,-0.3296,-0.3288,-0.3304,-0.3276,-0.3222,-0.3167,-0.3065,-0.3001,-0.2865,-0.2757,-0.2571,-0.2679,-0.2231,-0.2344,-0.2002,-0.1983,-0.1668,-0.1628,-0.1409,-0.2119,-0.212,-0.2122,-0.2123,0,-0.3042,-0.305,-0.3176,-0.3188,-0.3175,-0.3241,-0.3181,-0.3191,-0.3114,-0.2966,-0.3014,-0.2816,-0.2777,-0.2538,-0.2455,-0.2066,-0.2121,-0.1917,-0.1835,-0.1661,-0.1629,-0.1609,-0.179,-0.2104,-0.2108,-0.2111,-0.2114,0,-0.292,-0.3023,-0.3051,-0.3131,-0.3144,-0.313,-0.3104,-0.3015,-0.3001,-0.2789,-0.2746,-0.2585,-0.2257,-0.2154,-0.1863,-0.1804,-0.1491,-0.1399,-0.1156,-0.1056,-0.0858,-0.1049,-0.0795,-0.0774,-0.0923,-0.0915,-0.0908,0,-0.2858,-0.2879,-0.2981,-0.2962,-0.2989,-0.2984,-0.2924,-0.2952,-0.282,-0.2585,-0.2407,-0.2092,-0.1733,-0.1252,-0.1089,-0.0795,-0.1049,-0.0466,-0.0654,-0.0722,-0.0878,-0.1118,-0.1144,-0.0204,-0.0192,-0.0182,-0.0174,0,-0.2689,-0.2749,-0.2767,-0.2773,-0.2739,-0.2675,-0.2597,-0.2486,-0.2408,-0.2192,-0.1771,-0.1472,-0.0977,-0.0481,-0.0197,-0.0099,-0.0501,-0.0253,-0.0381,-0.0312,-0.0497,-0.0476,-0.0625,-0.0087,-0.0096,-0.0102,-0.0107,-0.011,-0.2507,-0.2499,-0.2539,-0.251,-0.2461,-0.2298,-0.2149,-0.2003,-0.1741,-0.1331,-0.1199,-0.0681,-0.013,0.0376,0.0394,0.0528,0.023,0.0529,0.0318,0.0092,0.0052,0.0129,0.0746,0.0743,0.0739,0.0737,0.0734,0,-0.2219,-0.2253,-0.2241,-0.2175,-0.2003,-0.2072,-0.1837,-0.161,-0.1201,-0.0875,-0.046,0.0206,0.08,0.0983,0.1316,0.1176,0.0883,0.0966,0.0656,0.0611,0.0736,0.0703,0.1407,0.1407,0.1407,0.1407,0.1407,0.1407,-0.2062,-0.1978,-0.202,-0.1727,-0.165,-0.1338,-0.1159,-0.086,-0.0593,-0.0001,0.0355,0.0582,0.0953,0.1444,0.1522,0.1382,0.0939,0.0911,0.0619,0.0642,0.0579,0.052,0.0452,0.1092,0.1091,0.0634,0.0629,0.0626]},{"header":{"parameterUnit":"m.s-1","parameterCategory":2,"la1":30.2991,"la2":30.254,"lo1":-89.0895,"lo2":-89.0444,"dy":0.0017,"dx":0.0017,"nx":28,"ny":28,"refTime":"2025-07-11T03:00:00:Z","depth":"0","parameterNumber":3,"parameterNumberName":"V-component_of_CURRENTS"},"data":[0,0,0,0,0,0,0,0,0,0,0,0,0,0,0,0,0,0,0,0,0,0,0,0,0,0,0,0,0,0,0,0,0,0,0,0,0,0,0,0,0,0,0,0,0,0,0,0,0,0,0,0,0,0,0,0,0,0,-0.0796,-0.0795,0,-0.0654,-0.0653,-0.0651,-0.0613,-0.0614,-0.0615,-0.0616,-0.0491,-0.0487,-0.0483,0,0,0,0,0,0,0,0,0,0,0,0,0,-0.0872,-0.0872,-0.0796,-0.0794,-0.0793,-0.0655,-0.0653,-0.0651,-0.0613,-0.0614,-0.0615,-0.0616,-0.0493,-0.0488,-0.0483,0,0,0,0,0,0,0,0,0,0,0,0,0,-0.0796,-0.0872,-0.0797,-0.0758,-0.0753,-0.0655,-0.0653,-0.065,-0.0613,-0.0614,-0.0616,-0.0617,-0.0494,-0.0488,-0.0482,-0.0417,0,0,-0.0463,-0.046,0,0,0,0,0,0,0,0,-0.08,-0.0793,-0.0765,-0.076,-0.0755,-0.0653,-0.0634,-0.0573,-0.0613,-0.0666,-0.0616,-0.0618,-0.0546,-0.0536,-0.0505,-0.0411,-0.0406,-0.0463,-0.0459,-0.0456,-0.0454,0,0,0,0,0,0,0,-0.0806,-0.0798,-0.074,-0.0763,-0.0757,-0.0692,-0.0684,-0.0621,-0.06,-0.0661,-0.0658,-0.0643,-0.0544,-0.0512,-0.0502,-0.0404,-0.0463,-0.0457,-0.0453,-0.0451,-0.024,-0.0239,0,0,0,0,0,0,-0.0831,-0.0804,-0.0744,-0.0735,-0.0782,-0.069,-0.0681,-0.0684,-0.06,-0.0589,-0.0642,-0.0642,-0.0521,-0.051,-0.0498,-0.043,-0.0456,-0.045,-0.0447,-0.0242,-0.024,-0.0238,0,0,0,0,0,0,-0.0834,-0.0828,-0.075,-0.0765,-0.0751,-0.0689,-0.0691,-0.0681,-0.0648,-0.0586,-0.0575,-0.0621,-0.0522,-0.0507,-0.0439,-0.0424,-0.0448,-0.0442,-0.0244,-0.0242,-0.0239,-0.0284,0,0,0,0,0,0,-0.0837,-0.083,-0.0835,-0.0768,-0.0751,-0.0687,-0.069,-0.0677,-0.0636,-0.0635,-0.0563,-0.0553,-0.0522,-0.0448,-0.0432,-0.0416,-0.0437,-0.0247,-0.0243,-0.024,-0.0285,-0.0283,-0.0282,0,0,0,0,0,-0.084,-0.0842,-0.0836,-0.0828,-0.0763,-0.0685,-0.067,-0.0629,-0.0634,-0.0607,-0.0567,-0.0555,-0.0415,-0.0441,-0.0423,-0.0405,-0.0248,-0.0244,-0.024,-0.0286,-0.0284,-0.0282,0,0,0,0,0,0,-0.0875,-0.0836,-0.0829,-0.082,-0.0756,-0.0679,-0.065,-0.0625,-0.0569,-0.0572,-0.0528,-0.0513,-0.0446,-0.0409,-0.044,-0.033,-0.033,-0.0322,-0.0371,-0.0368,-0.0367,-0.0407,-0.0432,0,0,0,0,0,-0.0886,-0.0881,-0.082,-0.0808,-0.078,-0.0715,-0.0679,-0.0649,-0.0592,-0.0569,-0.0522,-0.0468,-0.041,-0.0381,-0.0319,-0.0257,-0.0223,-0.0232,-0.023,-0.0229,-0.0247,-0.017,-0.0164,-0.0224,-0.0224,-0.0224,0,0,-0.0899,-0.0873,-0.0872,-0.0815,-0.0765,-0.0722,-0.0696,-0.0638,-0.0609,-0.0562,-0.051,-0.0455,-0.039,-0.0325,-0.0292,-0.0297,-0.019,-0.0224,-0.0225,-0.0243,-0.0165,-0.0159,-0.0155,-0.0221,-0.0222,-0.0222,0,0,-0.0902,-0.0893,-0.088,-0.0833,-0.076,-0.0719,-0.0706,-0.0626,-0.0597,-0.053,-0.0496,-0.044,-0.0344,-0.0303,-0.027,-0.0217,-0.0181,-0.0188,-0.0219,-0.0144,-0.0139,-0.0135,-0.008,-0.0071,-0.0193,-0.0193,-0.0193,0,-0.0916,-0.09,-0.0857,-0.0821,-0.0791,-0.0725,-0.0695,-0.0645,-0.0557,-0.0531,-0.052,-0.0391,-0.0338,-0.0274,-0.0262,-0.0218,-0.0174,-0.024,-0.0146,-0.0141,-0.0135,-0.008,-0.0069,-0.0195,-0.0195,-0.0195,-0.0195,0,-0.0899,-0.0886,-0.0867,-0.082,-0.0776,-0.0734,-0.0669,-0.0626,-0.059,-0.0543,-0.0466,-0.0392,-0.0323,-0.029,-0.0264,-0.0199,-0.0178,-0.0152,-0.0164,-0.0133,-0.0076,-0.0064,-0.0197,-0.0197,-0.0196,-0.0196,0,0,-0.0931,-0.0873,-0.0866,-0.085,-0.0777,-0.0737,-0.0694,-0.0628,-0.0598,-0.0524,-0.0478,-0.0393,-0.036,-0.032,-0.0271,-0.0218,-0.0142,-0.018,-0.0175,-0.0151,0.0017,0.0066,0.0084,-0.0096,-0.0095,-0.0093,0.0042,0,-0.0928,-0.0894,-0.0858,-0.0821,-0.0799,-0.0742,-0.0708,-0.0645,-0.0582,-0.0516,-0.045,-0.0378,-0.0367,-0.0328,-0.0276,-0.0165,-0.0111,-0.0182,0.0004,0.0009,0.0029,0.01,0.0223,0.0358,0.0054,0.0056,0.0058,0,-0.0922,-0.0901,-0.0883,-0.0838,-0.082,-0.0795,-0.0733,-0.0683,-0.0588,-0.0537,-0.0473,-0.0406,-0.0327,-0.0308,-0.0153,-0.0195,-0.0103,-0.0027,-0.0019,0.0045,0.0081,0.0282,0.0392,0.0397,0.0077,0.0075,0.0074,0,-0.0972,-0.0917,-0.0915,-0.0897,-0.0835,-0.0821,-0.0781,-0.0699,-0.0621,-0.0544,-0.0469,-0.0399,-0.0307,-0.0217,-0.0081,-0.0102,0.0105,0.0106,0.0231,0.0234,0.0384,0.0398,0.05,0.0222,0.0222,0.0221,0.0221,0,-0.0996,-0.0983,-0.0941,-0.0939,-0.0911,-0.0861,-0.0798,-0.0756,-0.0636,-0.049,-0.048,-0.0336,-0.0271,-0.014,-0.0061,0.0126,0.0126,0.0235,0.0283,0.0374,0.0385,0.043,0.0398,0.0226,0.0225,0.0224,0.0223,0,-0.1044,-0.1025,-0.1006,-0.0959,-0.0937,-0.0916,-0.078,-0.0689,-0.0626,-0.0429,-0.039,-0.0256,-0.0087,-0.0029,0.0152,0.0197,0.0392,0.0401,0.0483,0.0537,0.0631,0.0593,0.0732,0.0816,0.0555,0.0557,0.0559,0,-0.106,-0.1066,-0.1023,-0.0981,-0.0955,-0.089,-0.0794,-0.0696,-0.0546,-0.0318,-0.0181,-0.003,0.0211,0.0402,0.0449,0.0562,0.055,0.0713,0.0688,0.0663,0.0656,0.0607,0.0664,0.0876,0.0881,0.0884,0.0887,0,-0.1068,-0.1066,-0.1047,-0.0966,-0.0881,-0.0741,-0.059,-0.0469,-0.0265,-0.0069,0.0281,0.0473,0.0616,0.0814,0.0823,0.0874,0.0757,0.0789,0.0775,0.0921,0.0869,0.0966,0.0725,0.0918,0.0915,0.0913,0.0911,0.091,-0.1045,-0.1039,-0.0989,-0.0894,-0.0766,-0.0521,-0.0343,-0.0126,0.0173,0.0602,0.0728,0.1156,0.1203,0.1262,0.1186,0.1102,0.104,0.1138,0.1097,0.105,0.1123,0.0921,0.115,0.1149,0.1147,0.1146,0.1145,0,-0.0946,-0.0931,-0.0875,-0.0699,-0.0464,-0.043,-0.0112,0.0136,0.0568,0.0967,0.138,0.1898,0.187,0.1718,0.1511,0.1437,0.1399,0.1386,0.1357,0.1407,0.1272,0.1275,0.1528,0.1528,0.1528,0.1528,0.1528,0.1528,-0.088,-0.0807,-0.0778,-0.0401,-0.0241,0.0157,0.0384,0.0702,0.1032,0.1724,0.2217,0.2553,0.2465,0.1852,0.1558,0.1541,0.1564,0.1541,0.1503,0.1385,0.1357,0.1331,0.1327,0.1588,0.1588,0.172,0.1721,0.1722]}],[{"header":{"parameterUnit":"m.s-1","parameterCategory":2,"la1":30.2991,"la2":30.254,"lo1":-89.0895,"lo2":-89.0444,"dy":0.0017,"dx":0.0017,"nx":28,"ny":28,"refTime":"2025-07-11T03:00:00:Z","depth":"2","parameterNumber":2,"parameterNumberName":"U-component_of_CURRENTS"},"data":[0,0,0,0,0,0,0,0,0,0,0,0,0,0,0,0,0,0,0,0,0,0,0,0,0,0,0,0,0,0,0,0,0,0,0,0,0,0,0,0,0,0,0,0,0,0,0,0,0,0,0,0,0,0,0,0,0,0,-0.1607,-0.1606,0,-0.1587,-0.1588,-0.1589,-0.1683,-0.1684,-0.1686,-0.1687,-0.1774,-0.1775,-0.1776,0,0,0,0,0,0,0,0,0,0,0,0,0,-0.1568,-0.1571,-0.1608,-0.1606,-0.1604,-0.1587,-0.1588,-0.1589,-0.1683,-0.1684,-0.1686,-0.1688,-0.1774,-0.1775,-0.1776,0,0,0,0,0,0,0,0,0,0,0,0,0,-0.1585,-0.1571,-0.1608,-0.1638,-0.164,-0.1587,-0.1588,-0.159,-0.1682,-0.1684,-0.1687,-0.1688,-0.1774,-0.1775,-0.1777,-0.1744,0,0,-0.1781,-0.1782,0,0,0,0,0,0,0,0,-0.1584,-0.1588,-0.1635,-0.1636,-0.1637,-0.1627,-0.1605,-0.1642,-0.1682,-0.1682,-0.1687,-0.169,-0.1724,-0.1729,-0.1741,-0.1749,-0.1752,-0.1781,-0.1782,-0.1783,-0.1783,0,0,0,0,0,0,0,-0.1583,-0.1588,-0.1614,-0.1633,-0.1634,-0.1597,-0.1605,-0.1613,-0.1705,-0.1682,-0.1685,-0.1659,-0.1728,-0.1739,-0.1743,-0.1754,-0.1781,-0.1783,-0.1784,-0.1784,-0.1767,-0.1766,0,0,0,0,0,0,-0.1562,-0.1588,-0.1615,-0.1612,-0.1598,-0.1595,-0.1605,-0.164,-0.1702,-0.1709,-0.1657,-0.1663,-0.1735,-0.1741,-0.1747,-0.1789,-0.1783,-0.1784,-0.1785,-0.1769,-0.1767,-0.1766,0,0,0,0,0,0,-0.1563,-0.1567,-0.1615,-0.1584,-0.1586,-0.1594,-0.1632,-0.1638,-0.1648,-0.1679,-0.1692,-0.1658,-0.1737,-0.1745,-0.1768,-0.179,-0.1785,-0.1787,-0.177,-0.1768,-0.1766,-0.1824,0,0,0,0,0,0,-0.1563,-0.157,-0.1579,-0.1585,-0.1586,-0.1613,-0.1629,-0.1636,-0.1621,-0.1629,-0.1684,-0.1694,-0.1739,-0.1766,-0.177,-0.1792,-0.1788,-0.1772,-0.1769,-0.1767,-0.1823,-0.1824,-0.1824,0,0,0,0,0,-0.1563,-0.1561,-0.1582,-0.1582,-0.1605,-0.1612,-0.1613,-0.1631,-0.1618,-0.1644,-0.1666,-0.1693,-0.1752,-0.1766,-0.1771,-0.1795,-0.1773,-0.177,-0.1767,-0.1823,-0.1824,-0.1824,0,0,0,0,0,0,-0.1561,-0.1568,-0.1592,-0.16,-0.1618,-0.1624,-0.1602,-0.1614,-0.1646,-0.1656,-0.1683,-0.1697,-0.1724,-0.1727,-0.1741,-0.1772,-0.1762,-0.176,-0.1803,-0.1803,-0.1803,-0.1819,-0.1789,0,0,0,0,0,-0.1558,-0.1547,-0.158,-0.1577,-0.1581,-0.1588,-0.1579,-0.1619,-0.1634,-0.1651,-0.1683,-0.1699,-0.171,-0.1732,-0.1752,-0.1767,-0.1736,-0.1775,-0.1776,-0.1776,-0.1786,-0.1756,-0.1756,-0.1755,-0.1755,-0.1755,0,0,-0.154,-0.1542,-0.1534,-0.1569,-0.1569,-0.1595,-0.1594,-0.1604,-0.1641,-0.1651,-0.1696,-0.1703,-0.1707,-0.1746,-0.1756,-0.1759,-0.1749,-0.1772,-0.1774,-0.1783,-0.1753,-0.1754,-0.1754,-0.1753,-0.1754,-0.1754,0,0,-0.1505,-0.152,-0.1516,-0.1544,-0.1561,-0.1575,-0.1575,-0.1613,-0.1652,-0.169,-0.1697,-0.1722,-0.1736,-0.1772,-0.1776,-0.1773,-0.1745,-0.1755,-0.179,-0.1761,-0.1762,-0.1763,-0.1687,-0.1681,-0.1765,-0.1765,-0.1765,0,-0.15,-0.1511,-0.1513,-0.1542,-0.154,-0.1563,-0.1589,-0.163,-0.1682,-0.1699,-0.1717,-0.1725,-0.1758,-0.1772,-0.1795,-0.1785,-0.173,-0.1802,-0.1766,-0.1766,-0.1766,-0.1689,-0.1681,-0.1768,-0.1767,-0.1767,-0.1767,0,-0.1488,-0.1507,-0.1494,-0.1539,-0.1552,-0.1569,-0.1628,-0.1673,-0.1691,-0.1725,-0.1754,-0.1792,-0.1798,-0.1806,-0.1816,-0.1819,-0.1764,-0.1768,-0.1779,-0.1771,-0.1688,-0.1679,-0.1771,-0.177,-0.1769,-0.1769,0,0,-0.1456,-0.1486,-0.1489,-0.1504,-0.156,-0.1568,-0.1629,-0.1676,-0.1696,-0.1764,-0.1769,-0.1826,-0.1833,-0.1835,-0.1842,-0.1841,-0.181,-0.1811,-0.1808,-0.1759,-0.1691,-0.1581,-0.1559,-0.1798,-0.1797,-0.1797,-0.1622,0,-0.145,-0.1491,-0.1505,-0.1524,-0.1538,-0.1589,-0.1629,-0.169,-0.173,-0.1757,-0.1796,-0.1806,-0.1843,-0.1845,-0.1855,-0.182,-0.1792,-0.1854,-0.1686,-0.1681,-0.1605,-0.1549,-0.1486,-0.1319,-0.1613,-0.1611,-0.161,0,-0.1436,-0.146,-0.149,-0.1514,-0.1524,-0.1548,-0.1589,-0.1638,-0.1701,-0.1743,-0.1773,-0.1782,-0.1806,-0.1827,-0.1779,-0.1805,-0.1755,-0.1724,-0.1716,-0.1595,-0.1555,-0.1378,-0.1291,-0.1595,-0.1596,-0.1597,-0.1598,0,-0.1368,-0.1432,-0.1438,-0.1458,-0.1512,-0.1531,-0.1553,-0.1624,-0.1659,-0.1716,-0.173,-0.1752,-0.1749,-0.1718,-0.1692,-0.172,-0.1596,-0.1624,-0.1463,-0.1452,-0.1358,-0.134,-0.1563,-0.1563,-0.1563,-0.1564,-0.1564,0,-0.1317,-0.1324,-0.1414,-0.1405,-0.142,-0.1483,-0.149,-0.1548,-0.1613,-0.1625,-0.1699,-0.1699,-0.1722,-0.1668,-0.1644,-0.1509,-0.1552,-0.1446,-0.1402,-0.1367,-0.1353,-0.1576,-0.158,-0.1557,-0.1559,-0.156,-0.1561,0,-0.1217,-0.1275,-0.1283,-0.1352,-0.137,-0.1379,-0.1434,-0.1456,-0.1539,-0.1555,-0.1568,-0.163,-0.1555,-0.1531,-0.1455,-0.142,-0.1326,-0.1261,-0.1195,-0.1147,-0.1206,-0.1214,-0.1055,-0.105,-0.1045,-0.1041,-0.1038,0,-0.1164,-0.1161,-0.1222,-0.1222,-0.1241,-0.1276,-0.1296,-0.1399,-0.1429,-0.1502,-0.1493,-0.1453,-0.141,-0.1249,-0.1169,-0.1038,-0.1141,-0.0908,-0.0976,-0.1181,-0.1155,-0.117,-0.1185,-0.0854,-0.0849,-0.0846,-0.0843,0,-0.1056,-0.1085,-0.1093,-0.1103,-0.1116,-0.1141,-0.1181,-0.1201,-0.1313,-0.1338,-0.1345,-0.1314,-0.1177,-0.1032,-0.0873,-0.0803,-0.0934,-0.0826,-0.1045,-0.0998,-0.0979,-0.0958,-0.0981,-0.0811,-0.0814,-0.0816,-0.0818,-0.0819,-0.0981,-0.0963,-0.0978,-0.0976,-0.0992,-0.1,-0.0982,-0.1042,-0.1063,-0.1083,-0.1136,-0.1058,-0.1039,-0.0743,-0.0641,-0.0549,-0.0633,-0.0632,-0.0649,-0.0668,-0.0683,-0.0658,-0.0428,-0.0429,-0.043,-0.0431,-0.0431,0,-0.0907,-0.0882,-0.0851,-0.0848,-0.0826,-0.0876,-0.0899,-0.0878,-0.0858,-0.086,-0.0843,-0.0727,-0.0614,-0.0571,-0.039,-0.033,-0.0372,-0.0299,-0.0409,-0.044,-0.0467,-0.0479,-0.0166,-0.0165,-0.0164,-0.0163,0,0,-0.0868,-0.0801,-0.0772,-0.0696,-0.0689,-0.0641,-0.0632,-0.0608,-0.0585,-0.0523,-0.0488,-0.0534,-0.055,-0.038,-0.032,-0.0219,-0.0314,-0.0169,-0.0385,-0.0545,-0.0571,-0.066,-0.0709,0,0,0,0,0]},{"header":{"parameterUnit":"m.s-1","parameterCategory":2,"la1":30.2991,"la2":30.254,"lo1":-89.0895,"lo2":-89.0444,"dy":0.0017,"dx":0.0017,"nx":28,"ny":28,"refTime":"2025-07-11T03:00:00:Z","depth":"2","parameterNumber":3,"parameterNumberName":"V-component_of_CURRENTS"},"data":[0,0,0,0,0,0,0,0,0,0,0,0,0,0,0,0,0,0,0,0,0,0,0,0,0,0,0,0,0,0,0,0,0,0,0,0,0,0,0,0,0,0,0,0,0,0,0,0,0,0,0,0,0,0,0,0,0,0,-0.0483,-0.0483,0,-0.0447,-0.0447,-0.0447,-0.0414,-0.0413,-0.0413,-0.0412,-0.0232,-0.0228,-0.0224,0,0,0,0,0,0,0,0,0,0,0,0,0,-0.0566,-0.0564,-0.0483,-0.0482,-0.0482,-0.0447,-0.0447,-0.0447,-0.0414,-0.0413,-0.0412,-0.0412,-0.0234,-0.0229,-0.0224,0,0,0,0,0,0,0,0,0,0,0,0,0,-0.0532,-0.0564,-0.0483,-0.046,-0.0457,-0.0447,-0.0447,-0.0447,-0.0414,-0.0413,-0.0412,-0.0411,-0.0235,-0.0229,-0.0223,-0.0201,0,0,-0.0204,-0.0201,0,0,0,0,0,0,0,0,-0.0534,-0.0529,-0.0464,-0.0461,-0.0458,-0.0432,-0.041,-0.0357,-0.0414,-0.0432,-0.0412,-0.0411,-0.0285,-0.0275,-0.0275,-0.0193,-0.0185,-0.0203,-0.0199,-0.0196,-0.0195,0,0,0,0,0,0,0,-0.0536,-0.053,-0.0471,-0.0463,-0.046,-0.0466,-0.046,-0.0401,-0.0363,-0.0431,-0.0428,-0.0421,-0.0283,-0.0281,-0.027,-0.0183,-0.0203,-0.0198,-0.0194,-0.0191,-0.0107,-0.0108,0,0,0,0,0,0,-0.0535,-0.0532,-0.0472,-0.047,-0.0492,-0.0465,-0.0458,-0.0443,-0.0367,-0.0355,-0.0422,-0.042,-0.0293,-0.0277,-0.0263,-0.0222,-0.0196,-0.0191,-0.0187,-0.0105,-0.0107,-0.0109,0,0,0,0,0,0,-0.0537,-0.053,-0.0473,-0.0499,-0.0492,-0.0464,-0.0448,-0.0443,-0.0447,-0.0361,-0.0347,-0.0431,-0.0291,-0.0272,-0.022,-0.0215,-0.0188,-0.0182,-0.0103,-0.0106,-0.0108,-0.0146,0,0,0,0,0,0,-0.0539,-0.053,-0.0535,-0.0499,-0.0491,-0.0468,-0.0448,-0.0443,-0.0443,-0.044,-0.0364,-0.0346,-0.0289,-0.023,-0.0214,-0.0206,-0.0177,-0.0101,-0.0105,-0.0107,-0.0143,-0.0149,-0.0155,0,0,0,0,0,-0.0542,-0.0555,-0.0535,-0.0529,-0.0492,-0.0469,-0.0466,-0.0444,-0.0444,-0.0446,-0.0401,-0.0349,-0.0238,-0.0226,-0.0206,-0.0196,-0.01,-0.0104,-0.0107,-0.014,-0.0148,-0.0155,0,0,0,0,0,0,-0.0593,-0.0552,-0.0529,-0.0528,-0.0497,-0.0462,-0.0469,-0.0456,-0.0428,-0.0421,-0.0353,-0.0332,-0.0289,-0.0251,-0.0239,-0.019,-0.0167,-0.0167,-0.0199,-0.0205,-0.0211,-0.0199,-0.0172,0,0,0,0,0,-0.0604,-0.0601,-0.0555,-0.0551,-0.054,-0.0508,-0.0503,-0.0479,-0.0444,-0.0433,-0.0375,-0.0328,-0.0291,-0.0255,-0.0209,-0.017,-0.0125,-0.0161,-0.0167,-0.0172,-0.0154,-0.0094,-0.0091,-0.0121,-0.012,-0.012,0,0,-0.0612,-0.0599,-0.059,-0.0562,-0.054,-0.0527,-0.0504,-0.0489,-0.0474,-0.0413,-0.0378,-0.0339,-0.0289,-0.0248,-0.0226,-0.021,-0.0149,-0.0176,-0.0181,-0.016,-0.0097,-0.0093,-0.009,-0.0123,-0.0122,-0.0122,0,0,-0.0638,-0.0622,-0.0626,-0.0608,-0.0577,-0.0553,-0.0552,-0.0508,-0.0486,-0.0448,-0.0412,-0.0367,-0.0305,-0.0259,-0.0234,-0.0249,-0.0187,-0.0256,-0.0258,-0.0201,-0.0196,-0.0192,-0.0156,-0.0148,-0.0253,-0.0253,-0.0253,0,-0.0654,-0.065,-0.0624,-0.0626,-0.0617,-0.0568,-0.0565,-0.0537,-0.0479,-0.0453,-0.0438,-0.0357,-0.0304,-0.026,-0.0268,-0.0254,-0.0227,-0.0228,-0.0204,-0.0198,-0.0193,-0.0157,-0.0148,-0.0255,-0.0255,-0.0255,-0.0254,0,-0.0677,-0.0674,-0.0679,-0.066,-0.0648,-0.0637,-0.0587,-0.0561,-0.053,-0.0487,-0.0432,-0.0368,-0.0313,-0.0307,-0.0284,-0.0237,-0.0234,-0.022,-0.0175,-0.0192,-0.0154,-0.0144,-0.0258,-0.0257,-0.0257,-0.0256,0,0,-0.0702,-0.0695,-0.0695,-0.0696,-0.0665,-0.0655,-0.0627,-0.0581,-0.0556,-0.0492,-0.0454,-0.0389,-0.0345,-0.0316,-0.0282,-0.0231,-0.0176,-0.0215,-0.021,-0.0161,-0.0067,-0.005,-0.0037,-0.016,-0.0158,-0.0156,-0.0064,0,-0.0724,-0.0744,-0.0731,-0.0735,-0.0736,-0.0692,-0.0674,-0.0624,-0.0566,-0.051,-0.0436,-0.0381,-0.0353,-0.0324,-0.0269,-0.0197,-0.0147,-0.0203,-0.0073,-0.0069,-0.0036,-0.0023,-0.0041,0.0042,-0.0053,-0.0051,-0.005,0,-0.0752,-0.0763,-0.0779,-0.0774,-0.077,-0.0765,-0.0722,-0.0695,-0.0604,-0.0555,-0.0477,-0.0409,-0.032,-0.0299,-0.016,-0.0203,-0.0135,-0.0081,-0.0076,-0.0029,-0.003,0.0046,0.0065,-0.0031,-0.0033,-0.0034,-0.0035,0,-0.0793,-0.0798,-0.0819,-0.0816,-0.0798,-0.0796,-0.078,-0.0707,-0.0674,-0.0571,-0.0525,-0.0413,-0.0346,-0.0246,-0.0118,-0.0138,0.003,0.0021,0.0098,0.0099,0.0128,0.0129,0.0125,0.0125,0.0125,0.0125,0.0125,0,-0.0829,-0.0841,-0.0842,-0.0851,-0.0865,-0.084,-0.0828,-0.0783,-0.0712,-0.0665,-0.0551,-0.0479,-0.0327,-0.0208,-0.0114,0.0034,0.0043,0.0115,0.0137,0.0108,0.0106,0.0081,0.0074,0.0128,0.0127,0.0127,0.0126,0,-0.0859,-0.0864,-0.0886,-0.0885,-0.0886,-0.0895,-0.0872,-0.085,-0.0779,-0.0712,-0.0678,-0.0514,-0.0345,-0.0195,-0.0014,0.0049,0.0181,0.0228,0.0175,0.019,0.0202,0.0192,0.032,0.0322,0.0323,0.0324,0.0325,0,-0.0874,-0.0891,-0.0914,-0.0929,-0.0929,-0.0937,-0.0937,-0.0888,-0.0858,-0.0728,-0.0697,-0.051,-0.0362,-0.0093,0.0078,0.0261,0.0248,0.0317,0.0289,0.022,0.0229,0.0216,0.0205,0.0298,0.0299,0.03,0.03,0,-0.0893,-0.0907,-0.0922,-0.0956,-0.0973,-0.0986,-0.0981,-0.0974,-0.0906,-0.0835,-0.0704,-0.0573,-0.0281,-0.0049,0.019,0.0277,0.0286,0.0334,0.0309,0.0246,0.0207,0.0212,0.02,0.0305,0.0304,0.0304,0.0304,0.0304,-0.0902,-0.0918,-0.0946,-0.0975,-0.0999,-0.1024,-0.1032,-0.1006,-0.0966,-0.0824,-0.0719,-0.0469,-0.0276,0.0122,0.0248,0.0377,0.0371,0.0378,0.0373,0.0369,0.0345,0.031,0.0421,0.0422,0.0422,0.0422,0.0422,0,-0.0911,-0.093,-0.0959,-0.1,-0.1033,-0.1038,-0.1048,-0.1027,-0.0978,-0.0782,-0.063,-0.0362,-0.0098,0.013,0.035,0.0432,0.0404,0.0427,0.0375,0.037,0.0366,0.0338,0.0415,0.0415,0.0415,0.0416,0,0,-0.0915,-0.0949,-0.0966,-0.102,-0.1047,-0.1075,-0.1084,-0.1026,-0.0893,-0.0694,-0.0472,-0.024,0.0,0.0137,0.0239,0.0356,0.0329,0.0349,0.0344,0.0264,0.0258,0.0328,0.028,0,0,0,0,0]}],[{"header":{"parameterUnit":"m.s-1","parameterCategory":2,"la1":30.2991,"la2":30.254,"lo1":-89.0895,"lo2":-89.0444,"dy":0.0017,"dx":0.0017,"nx":28,"ny":28,"refTime":"2025-07-11T03:00:00:Z","depth":"4","parameterNumber":2,"parameterNumberName":"U-component_of_CURRENTS"},"data":[0,0,0,0,0,0,0,0,0,0,0,0,0,0,0,0,0,0,0,0,0,0,0,0,0,0,0,0,0,0,0,0,0,0,0,0,0,0,0,0,0,0,0,0,0,0,0,0,0,0,0,0,0,0,0,0,0,0,-0.0941,-0.0941,0,-0.0977,-0.0977,-0.0977,-0.0991,-0.0991,-0.0991,-0.0991,-0.1032,-0.1033,-0.1034,0,0,0,0,0,0,0,0,0,0,0,0,0,-0.0887,-0.0888,-0.0941,-0.0941,-0.0942,-0.0977,-0.0977,-0.0977,-0.0991,-0.0991,-0.0991,-0.0991,-0.1032,-0.1033,-0.1034,0,0,0,0,0,0,0,0,0,0,0,0,0,-0.0914,-0.0888,-0.0941,-0.0954,-0.0956,-0.0977,-0.0977,-0.0977,-0.0991,-0.0991,-0.0991,-0.0991,-0.1031,-0.1033,-0.1034,-0.1042,0,0,-0.1039,-0.104,0,0,0,0,0,0,0,0,-0.0913,-0.0916,-0.0952,-0.0953,-0.0955,-0.0981,-0.0973,-0.1,-0.0991,-0.0976,-0.0991,-0.0991,-0.1016,-0.1019,-0.1023,-0.1044,-0.1046,-0.1039,-0.104,-0.1041,-0.1041,0,0,0,0,0,0,0,-0.0911,-0.0914,-0.0953,-0.0952,-0.0955,-0.096,-0.0963,-0.0978,-0.0994,-0.0977,-0.0979,-0.0985,-0.1017,-0.1022,-0.1024,-0.1047,-0.1039,-0.104,-0.1041,-0.1042,-0.1135,-0.1137,0,0,0,0,0,0,-0.0909,-0.0913,-0.0952,-0.0955,-0.0935,-0.0961,-0.0965,-0.0971,-0.0994,-0.0998,-0.0985,-0.0986,-0.1019,-0.1022,-0.1026,-0.1084,-0.1041,-0.1042,-0.1043,-0.1134,-0.1136,-0.1137,0,0,0,0,0,0,-0.0908,-0.0913,-0.0951,-0.0936,-0.0941,-0.0962,-0.0969,-0.0972,-0.099,-0.1,-0.1004,-0.1002,-0.1019,-0.1024,-0.1055,-0.1084,-0.1043,-0.1044,-0.1132,-0.1134,-0.1136,-0.1171,0,0,0,0,0,0,-0.0906,-0.0912,-0.0922,-0.0936,-0.0942,-0.0977,-0.0969,-0.0973,-0.0994,-0.0996,-0.1016,-0.1019,-0.102,-0.1053,-0.1056,-0.1085,-0.1046,-0.113,-0.1133,-0.1136,-0.1168,-0.1174,-0.1179,0,0,0,0,0,-0.0904,-0.0912,-0.0923,-0.0928,-0.0954,-0.0978,-0.0983,-0.0996,-0.0995,-0.1011,-0.1023,-0.1019,-0.1074,-0.1055,-0.1059,-0.1089,-0.1129,-0.1132,-0.1135,-0.1165,-0.1173,-0.1179,0,0,0,0,0,0,-0.0893,-0.0915,-0.0927,-0.0941,-0.0967,-0.0982,-0.0998,-0.1005,-0.1026,-0.1031,-0.1034,-0.1038,-0.1079,-0.1081,-0.106,-0.1126,-0.1103,-0.1107,-0.1124,-0.1131,-0.1137,-0.1128,-0.1047,0,0,0,0,0,-0.0896,-0.0911,-0.0935,-0.0952,-0.0966,-0.0986,-0.0999,-0.1011,-0.1028,-0.1038,-0.1051,-0.107,-0.1095,-0.1109,-0.1129,-0.1161,-0.1141,-0.1186,-0.1192,-0.1197,-0.1194,-0.1188,-0.1192,-0.1149,-0.1148,-0.1148,0,0,-0.0898,-0.0912,-0.0922,-0.0951,-0.0972,-0.1002,-0.0994,-0.1022,-0.1049,-0.1039,-0.108,-0.1092,-0.1108,-0.1147,-0.1166,-0.1153,-0.1199,-0.1201,-0.1205,-0.12,-0.1192,-0.1196,-0.1199,-0.1151,-0.115,-0.115,0,0,-0.0909,-0.0924,-0.0944,-0.0966,-0.1002,-0.1019,-0.1032,-0.1059,-0.1076,-0.1115,-0.1117,-0.114,-0.1181,-0.1192,-0.1204,-0.1254,-0.123,-0.1272,-0.1293,-0.1288,-0.129,-0.1293,-0.1266,-0.1266,-0.1274,-0.1274,-0.1274,0,-0.0915,-0.0937,-0.0955,-0.0981,-0.1002,-0.103,-0.106,-0.1086,-0.112,-0.1132,-0.1138,-0.1186,-0.1201,-0.1235,-0.1258,-0.1266,-0.1252,-0.1262,-0.1293,-0.1295,-0.1296,-0.1269,-0.1268,-0.1276,-0.1276,-0.1275,-0.1275,0,-0.0939,-0.0963,-0.0977,-0.1022,-0.105,-0.1078,-0.1117,-0.1147,-0.1172,-0.1188,-0.1229,-0.1245,-0.1267,-0.1286,-0.1291,-0.1319,-0.1301,-0.1298,-0.1268,-0.1302,-0.1272,-0.127,-0.1279,-0.1278,-0.1277,-0.1277,0,0,-0.0933,-0.0986,-0.0992,-0.1013,-0.107,-0.1091,-0.1146,-0.1191,-0.1212,-0.1251,-0.1273,-0.1321,-0.1316,-0.133,-0.1336,-0.1339,-0.1343,-0.1331,-0.1329,-0.1292,-0.1317,-0.1193,-0.1178,-0.1346,-0.1346,-0.1347,-0.1288,0,-0.095,-0.0993,-0.1022,-0.1071,-0.1094,-0.1137,-0.1179,-0.1221,-0.1256,-0.1284,-0.1304,-0.1331,-0.1338,-0.1347,-0.1355,-0.1351,-0.1342,-0.1358,-0.1301,-0.1298,-0.1173,-0.1174,-0.1347,-0.1287,-0.1286,-0.1286,-0.1286,0,-0.0956,-0.0984,-0.103,-0.108,-0.1096,-0.1134,-0.1191,-0.1231,-0.128,-0.1302,-0.1328,-0.1343,-0.1365,-0.1362,-0.1356,-0.1368,-0.1346,-0.1334,-0.1331,-0.1199,-0.117,-0.1249,-0.1282,-0.1282,-0.1283,-0.1283,-0.1283,0,-0.0917,-0.0982,-0.1016,-0.1035,-0.1103,-0.1133,-0.1175,-0.1231,-0.1256,-0.1306,-0.1322,-0.1349,-0.1356,-0.1351,-0.1331,-0.135,-0.1302,-0.132,-0.1179,-0.117,-0.1285,-0.1283,-0.1298,-0.1298,-0.1299,-0.1299,-0.1299,0,-0.0897,-0.0924,-0.1,-0.1012,-0.1051,-0.1108,-0.1149,-0.1192,-0.1244,-0.1257,-0.1319,-0.132,-0.1356,-0.1337,-0.1323,-0.1228,-0.1289,-0.1169,-0.1143,-0.1301,-0.1302,-0.1283,-0.1282,-0.1296,-0.1297,-0.1297,-0.1298,0,-0.0838,-0.089,-0.0925,-0.1002,-0.1028,-0.1051,-0.1128,-0.1147,-0.1209,-0.1228,-0.1243,-0.1295,-0.1262,-0.1261,-0.1235,-0.119,-0.1131,-0.1078,-0.1224,-0.121,-0.1008,-0.1011,-0.0925,-0.092,-0.0916,-0.0912,-0.0909,0,-0.0807,-0.0822,-0.0901,-0.0918,-0.0955,-0.1005,-0.1032,-0.1113,-0.1129,-0.1192,-0.1184,-0.1186,-0.1198,-0.106,-0.1077,-0.1005,-0.0992,-0.0958,-0.1008,-0.0985,-0.0969,-0.0978,-0.0985,-0.0903,-0.0902,-0.0901,-0.0899,0,-0.0747,-0.0784,-0.0812,-0.0848,-0.0883,-0.0916,-0.0962,-0.0966,-0.1041,-0.1111,-0.1085,-0.106,-0.1006,-0.0976,-0.0907,-0.087,-0.0987,-0.0915,-0.0924,-0.0971,-0.0957,-0.0947,-0.096,-0.0885,-0.0887,-0.0888,-0.0889,0,-0.0702,-0.0703,-0.0742,-0.0765,-0.0802,-0.0806,-0.085,-0.0865,-0.0893,-0.0971,-0.0952,-0.0958,-0.0993,-0.0902,-0.0848,-0.0784,-0.0782,-0.077,-0.0788,-0.0804,-0.0788,-0.0754,-0.0582,0,0,0,0,0,-0.0652,-0.0643,-0.0657,-0.0674,-0.0706,-0.0726,-0.0789,-0.0835,-0.091,-0.0857,-0.0903,-0.085,-0.078,-0.0789,-0.0692,-0.0773,-0.0774,-0.0656,-0.077,-0.0804,-0.0821,-0.0811,0,0,0,0,0,0,-0.0616,-0.0626,-0.0626,-0.059,-0.0582,-0.0608,-0.0641,-0.0698,-0.0681,-0.076,-0.0725,-0.0779,-0.072,-0.0803,-0.0667,-0.0662,-0.071,-0.0661,-0.0658,-0.0794,-0.081,-0.0823,-0.0819,0,0,0,0,0]},{"header":{"parameterUnit":"m.s-1","parameterCategory":2,"la1":30.2991,"la2":30.254,"lo1":-89.0895,"lo2":-89.0444,"dy":0.0017,"dx":0.0017,"nx":28,"ny":28,"refTime":"2025-07-11T03:00:00:Z","depth":"4","parameterNumber":3,"parameterNumberName":"V-component_of_CURRENTS"},"data":[0,0,0,0,0,0,0,0,0,0,0,0,0,0,0,0,0,0,0,0,0,0,0,0,0,0,0,0,0,0,0,0,0,0,0,0,0,0,0,0,0,0,0,0,0,0,0,0,0,0,0,0,0,0,0,0,0,0,-0.0411,-0.0411,0,-0.0419,-0.0419,-0.0419,-0.0417,-0.0417,-0.0416,-0.0416,-0.0377,-0.0376,-0.0375,0,0,0,0,0,0,0,0,0,0,0,0,0,-0.0412,-0.0412,-0.0411,-0.0411,-0.0411,-0.0419,-0.0419,-0.0419,-0.0417,-0.0417,-0.0416,-0.0416,-0.0377,-0.0376,-0.0375,0,0,0,0,0,0,0,0,0,0,0,0,0,-0.0417,-0.0412,-0.0411,-0.041,-0.0409,-0.0419,-0.0419,-0.0419,-0.0417,-0.0417,-0.0416,-0.0416,-0.0377,-0.0376,-0.0375,-0.0377,0,0,-0.0372,-0.0371,0,0,0,0,0,0,0,0,-0.0416,-0.0417,-0.041,-0.041,-0.0409,-0.0415,-0.0405,-0.0402,-0.0417,-0.0416,-0.0416,-0.0416,-0.0384,-0.0383,-0.0388,-0.0375,-0.0373,-0.0371,-0.0371,-0.037,-0.037,0,0,0,0,0,0,0,-0.0416,-0.0416,-0.0416,-0.041,-0.041,-0.0415,-0.0415,-0.0405,-0.0403,-0.0416,-0.0415,-0.0414,-0.0384,-0.0389,-0.0387,-0.0373,-0.0371,-0.037,-0.037,-0.0369,-0.0338,-0.0338,0,0,0,0,0,0,-0.0412,-0.0416,-0.0415,-0.0416,-0.041,-0.0415,-0.0415,-0.0415,-0.0404,-0.0402,-0.0414,-0.0414,-0.0392,-0.0388,-0.0385,-0.0375,-0.037,-0.0369,-0.0368,-0.0339,-0.0338,-0.0338,0,0,0,0,0,0,-0.0412,-0.0411,-0.0415,-0.0415,-0.0415,-0.0415,-0.0415,-0.0415,-0.0426,-0.0403,-0.04,-0.0425,-0.0391,-0.0387,-0.0379,-0.0374,-0.0369,-0.0368,-0.0339,-0.0338,-0.0338,-0.0361,0,0,0,0,0,0,-0.0412,-0.0411,-0.0419,-0.0414,-0.0415,-0.0427,-0.0415,-0.0416,-0.0425,-0.0424,-0.0411,-0.0407,-0.039,-0.0381,-0.0378,-0.0372,-0.0367,-0.0339,-0.0339,-0.0338,-0.0361,-0.0362,-0.0363,0,0,0,0,0,-0.0412,-0.0424,-0.042,-0.042,-0.0423,-0.0427,-0.0429,-0.0428,-0.0426,-0.0435,-0.0422,-0.0408,-0.0377,-0.038,-0.0377,-0.037,-0.0339,-0.0339,-0.0338,-0.036,-0.0362,-0.0363,0,0,0,0,0,0,-0.0435,-0.0425,-0.042,-0.043,-0.043,-0.0426,-0.0437,-0.0435,-0.0435,-0.0433,-0.0412,-0.0407,-0.0395,-0.0383,-0.0387,-0.036,-0.0353,-0.0352,-0.0371,-0.0372,-0.0373,-0.0375,-0.0366,0,0,0,0,0,-0.0442,-0.0446,-0.0437,-0.0448,-0.0447,-0.0444,-0.0448,-0.0446,-0.044,-0.0441,-0.0428,-0.041,-0.0391,-0.0383,-0.0367,-0.0359,-0.0326,-0.035,-0.0351,-0.0352,-0.0351,-0.0303,-0.0299,-0.0337,-0.0337,-0.0337,0,0,-0.0454,-0.045,-0.0453,-0.0453,-0.0452,-0.0454,-0.0446,-0.0454,-0.0453,-0.0435,-0.0433,-0.0417,-0.0391,-0.0377,-0.037,-0.0366,-0.0322,-0.0352,-0.0353,-0.0351,-0.0302,-0.0298,-0.0295,-0.0337,-0.0337,-0.0337,0,0,-0.0479,-0.0476,-0.0486,-0.0483,-0.0482,-0.0474,-0.0478,-0.0474,-0.0469,-0.0466,-0.0445,-0.0427,-0.041,-0.0384,-0.0369,-0.0368,-0.0331,-0.0363,-0.037,-0.0323,-0.0319,-0.0316,-0.026,-0.0252,-0.0363,-0.0363,-0.0363,0,-0.0494,-0.0503,-0.0492,-0.0498,-0.0497,-0.0483,-0.0491,-0.0483,-0.0477,-0.0469,-0.0467,-0.0428,-0.0409,-0.0378,-0.0377,-0.037,-0.0336,-0.0368,-0.0324,-0.032,-0.0316,-0.026,-0.025,-0.0364,-0.0364,-0.0364,-0.0364,0,-0.0521,-0.0528,-0.0534,-0.053,-0.0529,-0.0535,-0.0515,-0.0511,-0.0502,-0.0489,-0.0465,-0.0438,-0.0414,-0.0402,-0.039,-0.0352,-0.0334,-0.0332,-0.0321,-0.0313,-0.0255,-0.0244,-0.0365,-0.0365,-0.0365,-0.0364,0,0,-0.0545,-0.0552,-0.0553,-0.0559,-0.0545,-0.0549,-0.0536,-0.0521,-0.0512,-0.0494,-0.048,-0.0443,-0.043,-0.0411,-0.0388,-0.0348,-0.0289,-0.0333,-0.033,-0.0278,-0.0176,-0.0173,-0.016,-0.0281,-0.0279,-0.0278,-0.0143,0,-0.0568,-0.059,-0.0582,-0.0598,-0.0603,-0.058,-0.0571,-0.0552,-0.0529,-0.051,-0.0469,-0.0447,-0.0431,-0.042,-0.0378,-0.0313,-0.0264,-0.0325,-0.019,-0.0186,-0.0185,-0.0149,-0.0274,-0.0135,-0.0132,-0.0131,-0.0129,0,-0.0592,-0.0601,-0.0625,-0.0628,-0.0628,-0.0635,-0.0613,-0.0604,-0.056,-0.0541,-0.0505,-0.0471,-0.0411,-0.0404,-0.0277,-0.0318,-0.025,-0.0196,-0.0189,-0.0172,-0.0163,-0.0146,-0.0109,-0.0111,-0.0112,-0.0114,-0.0115,0,-0.0615,-0.0629,-0.0652,-0.0654,-0.0652,-0.0659,-0.0656,-0.0619,-0.0608,-0.056,-0.054,-0.0468,-0.0426,-0.0337,-0.0228,-0.0249,-0.0082,-0.0095,-0.0021,-0.0019,-0.0053,-0.0059,0.0001,0.0001,0.0001,0.0,-0.0,0,-0.0635,-0.0654,-0.0671,-0.0684,-0.0707,-0.0693,-0.0704,-0.0682,-0.0649,-0.0631,-0.0565,-0.0522,-0.0407,-0.0303,-0.0215,-0.0077,-0.0065,-0.0007,0.0018,-0.0065,-0.0073,-0.0045,-0.0052,0.0005,0.0004,0.0003,0.0002,0,-0.0652,-0.0667,-0.0695,-0.0712,-0.0723,-0.0738,-0.0748,-0.0746,-0.0705,-0.0677,-0.066,-0.0546,-0.0403,-0.0274,-0.0108,-0.0053,0.0073,0.0119,0.004,0.0056,0.0102,0.0093,0.0215,0.0216,0.0217,0.0218,0.0219,0,-0.0661,-0.0681,-0.0722,-0.0747,-0.0763,-0.0787,-0.0803,-0.0781,-0.0771,-0.0687,-0.067,-0.0524,-0.0439,-0.0186,-0.0064,0.0129,0.014,0.0202,0.0133,0.0113,0.0126,0.0114,0.0103,0.022,0.0221,0.0221,0.0221,0,-0.0672,-0.0697,-0.0721,-0.0775,-0.081,-0.0836,-0.0855,-0.085,-0.081,-0.0775,-0.0653,-0.0519,-0.035,-0.0174,-0.0013,0.0111,0.0156,0.0214,0.0211,0.0147,0.0121,0.013,0.0118,0.0225,0.0224,0.0224,0.0224,0,-0.0683,-0.0705,-0.075,-0.0791,-0.0839,-0.0868,-0.0876,-0.0848,-0.0826,-0.073,-0.0688,-0.0503,-0.0393,-0.018,-0.0039,0.0095,0.0108,0.0117,0.0119,0.0117,0.0033,-0.0017,0.0081,0,0,0,0,0,-0.0687,-0.072,-0.0762,-0.0811,-0.0858,-0.0885,-0.09,-0.0895,-0.086,-0.0777,-0.0728,-0.0568,-0.033,-0.022,-0.0083,-0.0043,0.0113,0.0116,0.012,0.0246,0.0241,0.0158,0,0,0,0,0,0,-0.0695,-0.0741,-0.076,-0.0817,-0.0855,-0.0902,-0.0913,-0.089,-0.0833,-0.0775,-0.0637,-0.0559,-0.032,-0.0404,-0.0086,-0.0044,-0.0031,0.0235,0.0237,0.0248,0.0244,0.0241,0.0154,0,0,0,0,0]}]]